Location: Saint Louis
(38.6272°N, 90.1978°W)
Time: 04:22:55
(UTC-05:00)

Tiangong 1 - Visible Passes

Search period start: 23 September 2017 00:00
Search period end: 03 October 2017 00:00
Orbit: 303 x 328 km, 42.8° (Epoch: 22 September)

Date Brightness Start Highest point End Pass type
(mag) Time Alt. Az. Time Alt. Az. Time Alt. Az.
23 Sep 3.1 04:56:24 24° ENE 04:56:24 24° ENE 04:57:49 10° E visible
24 Sep 2.0 05:09:36 40° E 05:09:36 40° E 05:11:30 10° E visible
25 Sep 1.4 05:22:49 44° SSE 05:22:49 44° SSE 05:24:52 10° SE visible
26 Sep 2.3 05:36:05 22° S 05:36:05 22° S 05:37:41 10° SSE visible
02 Oct 2.8 19:57:43 10° SSW 19:58:49 16° S 19:58:49 16° S visible
